Flag Weather past 2 weeks in Kumamoto, Japan

Now
55 °F

Partly sunny.


Feels Like: 53 °F
Forecast: 54 / 66 °F
Wind: 8 mph from North

Location: Kumamoto Airport

Current Time: Nov 26, 2014 at 7:24:47 AM

Latest Report: Nov 26, 2014 at 7:00 AM


Visibility: N/A

Pressure: 29.89 "Hg

Humidity: 82%

Dew point: 50 °F

Location of KumamotoLocation

Historic Weather in Kumamoto — Graph

°F

Kumamoto temperature yesterday

Maximum temperature yesterday: 66 °F (at 2:00 PM)
Minimum temperature yesterday: 59 °F (at 7:00 PM)
Average temperature yesterday: 63 °F

Past Weeks' High & Low Weather Summary

 TemperatureHumidityPressure
High72 °F (Nov 24, 12:00 PM)100% (Nov 18, 7:00 AM)30.39 "Hg (Nov 18, 7:00 AM)
Low39 °F (Nov 15, 7:00 AM)36% (Nov 19, 2:00 PM)29.77 "Hg (Nov 25, 2:00 PM)
Average55 °F71%30.14 "Hg
* Reported Nov 10 9:00 PM — Nov 25 9:00 PM, Kumamoto, Weather by CustomWeather, © 2014

Note: Actual official high and low records may vary slightly from our data, if they occured in-between our weather recording intervals... More about our weather records

Advertising

Kumamoto weather history for previous 24 hours

 ConditionsComfort  
Time TempWeatherWind HumidityBarometerVisibility
9:00 PM
Nov 25
59 °FPassing clouds.8 mph82%29.86 "HgN/A
8:00 PM59 °FPassing clouds.5 mph88%29.83 "HgN/A
7:00 PM59 °FPassing clouds.1 mph94%29.83 "HgN/A
6:00 PM61 °FPartly cloudy.3 mph83%29.80 "HgN/A
5:00 PM63 °FBroken clouds.6 mph83%29.80 "HgN/A
4:00 PM64 °FPartly sunny.7 mph83%29.80 "HgN/A
3:00 PM66 °FBroken clouds.3 mph78%29.77 "HgN/A
2:00 PM66 °FScattered clouds.5 mph83%29.77 "HgN/A
1:00 PM64 °FBroken clouds.5 mph88%29.80 "HgN/A
12:00 PM64 °FBroken clouds.3 mph94%29.80 "HgN/A
11:00 AM64 °FBroken clouds.3 mph94%29.83 "Hg5 mi
10:00 AM64 °FSprinkles. Fog.3 mph100%29.83 "Hg2 mi
9:00 AM63 °FFog.3 mph100%29.83 "Hg1 mi
8:00 AM63 °FRain showers. Fog.6 mph100%29.83 "Hg1 mi
7:51 AM63 °FLots of rain. Fog.5 mph100%29.83 "Hg1 mi
7:00 AM63 °FSprinkles. Fog.8 mph94%29.80 "Hg2 mi
Weather by CustomWeather, © 2014

See weather overviewHow to use our weather pages